Regional Weather Roundup
Issued by NWS

Home | Current Version | Previous Version | Graphics & Text | Print | Product List | Glossary On
Versions: 1 2 3 4 5 6 7 8 9 10 11 12 13 14 15 16 17 18 19 20 21 22 23 24 25 26 27 28 29 30 31 32 33 34 35 36 37 38 39 40 41 42 43 44 45 46 47 48 49 50
000
ASUS45 KPSR 220100
RWRAZ

PRELIMINARY ARIZONA REGIONAL HOURLY WEATHER ROUNDUP
NATIONAL WEATHER SERVICE PHOENIX AZ
600 PM MST MON JUL 21 2014

NOTE: FAIR INDICATES FEW OR NO CLOUDS BELOW 12,000 FEET WITH NO
SIGNIFICANT WEATHER AND/OR OBSTRUCTIONS TO VISIBILITY.

AZZ001>003-036-220200-
NORTHWEST ARIZONA

CITY           SKY/WX    TMP DP  RH WIND       PRES   REMARKS
KINGMAN        NOT AVBL
$$

AZZ004>008-015-016-018-220200-
NORTH CENTRAL ARIZONA

CITY           SKY/WX    TMP DP  RH WIND       PRES   REMARKS
GRAND CANYON   SUNNY     83  31  15 SW10G16   30.31F
WILLIAMS       SUNNY     81  32  17 SW9       30.39S
PRESCOTT       SUNNY     88  38  17 W15       30.19F
FLAGSTAFF      SUNNY     81  35  19 SW10G21   30.34S
PAYSON         SUNNY     90  37  15 W8G21     30.21S
PAGE           SUNNY     99  26   7 N9        30.06F
$$

AZZ009>014-017-220200-
NORTHEAST ARIZONA

CITY           SKY/WX    TMP DP  RH WIND       PRES   REMARKS
WINSLOW        NOT AVBL
SAINT JOHNS    PTSUNNY   89  37  16 E5        30.20S
WINDOW ROCK    SUNNY     88  33  14 MISG      30.29S
$$

AZZ023-220200-
GREATER PHOENIX AREA

CITY           SKY/WX    TMP DP  RH WIND       PRES   REMARKS
PHOENIX        MOSUNNY  105  41  11 W13G20    29.85F HX 100
BUCKEYE          N/A    104  45  13 SW7       29.86F HX 100
GLENDALE       MOSUNNY  106  43  11 SW6       29.87F HX 101
DEER VALLEY    SUNNY    102  39  11 SW8       29.88F
SCOTTSDALE     SUNNY    103  42  12 W10       29.90F
CHANDLER       MOSUNNY  104  39  11 W7        29.88F
$$

AZZ027-028-220200-
SOUTHWEST MARICOPA COUNTY AND PINAL COUNTY

CITY           SKY/WX    TMP DP  RH WIND       PRES   REMARKS
CASA GRANDE    SUNNY    102  43  13 CALM      29.90F
$$

AZZ503-504-507>509-220200-
SOUTHEAST ARIZONA

CITY           SKY/WX    TMP DP  RH WIND       PRES   REMARKS
TUCSON         FAIR     100  40  12 NW15      29.99F
DAVIS-MONTHAN  SUNNY     98  42  14 NW15G21   29.98F
RYAN FIELD       N/A     99  43  14 NW8       29.97F
NOGALES        CLOUDY    94  48  20 N8        30.06F
SIERRA VISTA   PTSUNNY   90  46  22 E8        30.15S
SAFFORD        CLOUDY   100  40  12 NW9       29.97S
$$

AZZ020-021-025-026-031-220200-
SOUTHWEST ARIZONA

CITY           SKY/WX    TMP DP  RH WIND       PRES   REMARKS
YUMA           NOT AVBL
$$

CAZ031-033-041-043-047-048-061-220200-
SOUTHERN CALIFORNIA

CITY           SKY/WX    TMP DP  RH WIND       PRES   REMARKS
DOWNTOWN L.A.  SUNNY     77  60  55 VRB3      29.98F
L.A. AIRPORT   MOSUNNY   73  61  65 W17       30.00F
SAN DIEGO      MOSUNNY   74  62  66 NW14      30.01F
BURBANK        SUNNY     80  58  46 S7        29.98F
ONTARIO        MOSUNNY   85  58  39 W14       29.98S
RIVERSIDE      SUNNY     85  58  39 W10G21    29.98S
PALM SPRINGS   SUNNY    104  47  14 NW15      29.83F HX 100
EL CENTRO NAS  SUNNY    106  41  11 E7        29.77F HX 100
IMPERIAL       SUNNY    105  41  11 E8        29.77F HX 100
BLYTHE         SUNNY    107  32   7 S8        29.81F HX 100
$$

NVZ020-UTZ003-220200-
SOUTHERN NEVADA-UTAH

CITY           SKY/WX    TMP DP  RH WIND       PRES   REMARKS
LAS VEGAS      NOT AVBL
SALT LAKE CITY PTSUNNY   93  25   8 SW12      29.99S
$$

NMZ009-TXZ055-220200-
NEW MEXICO-WEST TEXAS

CITY           SKY/WX    TMP DP  RH WIND       PRES   REMARKS
ALBUQUERQUE    MOSUNNY   92  40  16 W5        30.14S
EL PASO        MOSUNNY   98  48  18 W12       30.02R
$$


........................KEY........................
SKY/WX - SKY CONDITION/WEATHER
TMP    - TEMPERATURE IN FAHRENHEIT
DP     - DEW POINT IN FAHRENHEIT
RH     - RELATIVE HUMIDITY IN PERCENT
WIND   - DIRECTION AND SPEED IN MILES PER HOUR (MPH)
VRB    - VARIABLE WIND DIRECTION
PRES   - MEAN SEA LEVEL PRESSURE IN INCHES OF MERCURY
         F - FALLING PRESSURE   R - RISING PRESSURE
         S - STEADY PRESSURE
VSB    - VISIBILITY IN MILES
HX     - HEAT INDEX IN FAHRENHEIT
WCI    - WIND CHILL INDEX IN FAHRENHEIT
TC     - TEMPERATURE IN CELSIUS WHICH IS ALSO KNOWN AS
         TEMPERATURE IN CENTIGRADE
AFB    - AIR FORCE BASE
         LUKE AFB IS LUKE AIR FORCE BASE
         DAVIS-MONTHAN IS DAVIS-MONTHAN AIR FORCE BASE
NAS    - NAVAL AIR STATION
         EL CENTRO NAS IS EL CENTRO NAVAL AIR STATION
N/A    - NOT AVAILABLE



USA.gov is the U.S. government's official web portal to all federal, state and local government web resources and services.